Location: Kings Park
(40.8862°N, 73.2573°W)
Time: 05:42:18
(UTC+00:00)

Cosmos 1812 Rocket - Pass Details

Date: 29 October 2020
Orbit: 605 x 633 km, 82.5° (Epoch: 29 November)

Event Time Altitude Azimuth Distance (km) Brightness Sun altitude
Rises 23:47:45 0° 195° (SSW) 2,890 7.2 -22.4°
Reaches altitude 10° 23:50:00 10° 199° (SSW) 1,984 6.3 -22.8°
Maximum altitude 23:54:20 60° 279° (W) 710 4.0 -23.6°
Drops below altitude 10° 23:58:41 10° 0° (N) 1,982 6.2 -24.4°
Sets 00:00:56 0° 4° (N) 2,887 7.0 -24.9°
